Вернуться в каталог

SL-8 DEB

АктивенLEO
NORAD 21115·DEBRIS·🇷🇺 Russia

Запущен Feb 12, 1991 с Plesetsk Cosmodrome

Loading…

Ближайшие Пролёты (ближайшие 24 часа)

TLE

СвежийSource: Space-Track

Эпоха: Sep 14, 2026, 05:53 UTC

1 21115U 91009M   26257.24554823 -.00000087  00000-0 -68343-3 0  9998
2 21115  74.0393 185.5534 0183557 274.8371 239.9261 12.16943311580017

Отслеживайте SL-8 DEB в реальном времени с AllMySat

Download on the App Store